Regional Weather Roundup
Issued by NWS

Home | Current Version | Previous Version | Text Only | Print | Product List | Glossary Off
Versions: 1 2 3 4 5 6 7 8 9 10 11 12 13 14 15 16 17 18 19 20 21 22 23 24 25 26 27 28 29 30 31 32 33 34 35 36 37 38 39 40 41 42 43 44 45 46 47 48 49 50

000
ASUS43 KOAX 200502
RWRNE

WEATHER ROUNDUP FOR NEBRASKA
NATIONAL WEATHER SERVICE OMAHA NE
1200 AM CDT SUN MAY 20 2018

NOTES: SATELLITE DATA IS BEING USED TO AUGMENT CLOUD COVER ABOVE
       12000 FEET.
       "FAIR" INDICATES FEW OR NO CLOUDS BELOW 12,000 FEET WITH NO
       SIGNIFICANT WEATHER AND/OR OBSTRUCTIONS TO VISIBILITY.


NEZ001>004-019>022-054>056-200600-
NEBRASKA PANHANDLE

CITY           SKY/WX    TMP DP  RH WIND       PRES   REMARKS
SCOTTSBLUFF    CLOUDY    44  42  93 W5        30.28R
ALLIANCE       CLOUDY    43  42  97 NW8       30.24S
CHADRON        CLOUDY    44  43  96 SW6       30.26S
GORDON         FAIR      46  42  86 NW6       30.24S
KIMBALL        CLOUDY    40  39  96 N5        30.29R
SIDNEY         CLOUDY    42  40  92 N9        30.27R
$$

NEZ057>060-069>072-079>082-200600-
SOUTHWEST NEBRASKA

CITY           SKY/WX    TMP DP  RH WIND       PRES   REMARKS
NORTH PLATTE   CLOUDY    50  43  77 N10       30.17S
IMPERIAL       CLOUDY    46  45  96 NW9       30.22R
LEXINGTON      CLOUDY    51  50  95 N6        30.13S
MCCOOK         LGT RAIN  48  46  93 N16       30.15F
OGALLALA       CLOUDY    48  44  85 N6        30.23R
$$

NEZ005>010-023>029-035>040-094-200600-
NORTH CENTRAL NEBRASKA

CITY           SKY/WX    TMP DP  RH WIND       PRES   REMARKS
VALENTINE      CLOUDY    53  37  54 N14       30.19R
AINSWORTH      DRIZZLE   50  45  83 N9        30.17R
BROKEN BOW     LGT RAIN  51  50  96 N14       30.12R
ORD            CLOUDY    51  50  96 N9        30.10R
THEDFORD       DRIZZLE   49  45  87 NW7       30.20S
$$

NEZ041-046>049-061>064-073>077-083>087-200600-
SOUTH CENTRAL NEBRASKA

CITY           SKY/WX    TMP DP  RH WIND       PRES   REMARKS
GRAND ISLAND   RAIN      52  50  93 N9        30.09R FOG
AURORA         CLOUDY    52  52  99 N10       30.08R
HASTINGS       RAIN      51  50  96 N6        30.10F FOG
HEBRON         CLOUDY    56  53  89 N7        30.04S
HOLDREGE       LGT RAIN  49  49 100 N5        30.13R
KEARNEY        LGT RAIN  50  49  96 N8        30.11R
YORK           CLOUDY    54  54 100 N9        30.07R
$$

NEZ011>018-030>034-042>045-200600-
NORTHEAST NEBRASKA

CITY           SKY/WX    TMP DP  RH WIND       PRES   REMARKS
NORFOLK        CLOUDY    53  53 100 N6        30.08R
ALBION         CLOUDY    53  52  95 N7        30.10R
BLAIR          MOCLDY    57  56  95 N8        30.04S FOG
COLUMBUS       CLOUDY    54  52  93 N13       30.07F
FREMONT        CLOUDY    58  55  92 N5        30.06S
TEKAMAH        CLOUDY    57  56  96 N12       30.05R
WAYNE          CLOUDY    55  54  96 N7        30.08R
$$

NEZ050>053-065>068-078-088>093-200600-
SOUTHEAST NEBRASKA

CITY           SKY/WX    TMP DP  RH WIND       PRES   REMARKS
LINCOLN        PTCLDY    54  52  93 N7        30.05F
OMAHA EPPLEY   MOCLDY    59  56  89 N7        30.03S
BEATRICE       PTCLDY    57  55  91 N8        30.02F
FALLS CITY     CLEAR     61  58  90 N6        29.99R
NEBRASKA CITY  CLEAR     58  58 100 N10       30.01S
PLATTSMOUTH    CLEAR     58  55  89 NW7       30.03S
$$

NEZ044-045-051>053-067-200600-
OMAHA AREA

CITY           SKY/WX    TMP DP  RH WIND       PRES   REMARKS
OMAHA EPPLEY   MOCLDY    59  56  89 N7        30.03S
BLAIR          MOCLDY    57  56  95 N8        30.04S FOG
FREMONT        CLOUDY    58  55  92 N5        30.06S
MILLARD        CLOUDY    59  57  92 NW3       30.03F
OFFUTT AFB     CLOUDY    55  55  98 CALM      30.02S
PLATTSMOUTH    CLEAR     58  55  89 NW7       30.03S
WAHOO          CLOUDY    57  54  88 N8        30.05S
$$




USA.gov is the U.S. government's official web portal to all federal, state and local government web resources and services.